[Iaude] MPEC M19: 2024 MC [a=0.81,e=0.30,i=28.1,H=23.9]
    mpec at cfa.harvard.edu 
    mpec at cfa.harvard.edu
       
    Tue Jun 18 12:08:08 EDT 2024
    
    
  
M.P.E.C. 2024-M19                                 Issued 2024 June 18, 16:06 UT
     The Minor Planet Electronic Circulars contain information on unusual
         minor planets, routine data on comets and natural satellites,
         and occasional editorial announcements.  They are published
    on behalf of Division F of the International Astronomical Union by the
          Minor Planet Center, Smithsonian Astrophysical Observatory,
                          Cambridge, MA 02138, U.S.A.
			  
             Prepared using the Tamkin Foundation Computer Network
                              MPC at CFA.HARVARD.EDU
            URL https://www.minorplanetcenter.net/    ISSN 1523-6714
                                    2024 MC                                     
Observations:
     K24M00C* C2024 06 17.31678321 44 37.034-31 46 25.79         17.84cVEM019W68
     K24M00C  C2024 06 17.31859821 44 33.732-31 45 24.26         17.82cVEM019W68
     K24M00C  C2024 06 17.32185121 44 27.792-31 43 32.95         17.98cVEM019W68
     K24M00C  C2024 06 17.32692121 44 18.451-31 40 39.04         18.46cVEM019W68
     K24M00C mC2024 06 17.44211821 40 59.560-30 37 31.73         17.47GVEM019I52
     K24M00C mC2024 06 17.44228821 40 59.250-30 37 25.43         17.48GVEM019I52
     K24M00C mC2024 06 17.44245921 40 58.912-30 37 19.31         17.48GVEM019I52
     K24M00C mC2024 06 17.44262921 40 58.613-30 37 13.04         17.44GVEM019I52
     K24M00C KB2024 06 18.07147321 20 56.453-23 02 37.75         17.1 GXEM019L34
     K24M00C KB2024 06 18.07544021 20 47.592-22 59 14.93         17.2 GXEM019L34
     K24M00C  C2024 06 18.13723821 18 56.36 -21 57 18.6                WEM019X09
     K24M00C  C2024 06 18.13833221 18 54.09 -21 56 20.8                WEM019X09
     K24M00C mC2024 06 18.37463921 10 00.548-18 22 38.78         17.07GVEM019I52
     K24M00C mC2024 06 18.37480921 10 00.152-18 22 28.92         17.29GVEM019I52
     K24M00C mC2024 06 18.37497921 09 59.742-18 22 18.91         17.21GVEM019I52
     K24M00C mC2024 06 18.37974421 09 48.157-18 17 35.63         17.23GVEM019I52
     K24M00C KB2024 06 18.62643021 00 13.276-13 56 04.85         17.3 VZEM019Q06
     K24M00C KB2024 06 18.62943821 00 05.572-13 52 43.41         16.8 VZEM019Q06
     K24M00C KB2024 06 18.64891220 59 15.497-13 30 51.16         17.2 VZEM019Q06
     K24M00C KB2024 06 18.65313620 59 04.550-13 26 04.67         17.0 VZEM019Q06
     K24M00C KB2024 06 18.65736220 58 53.597-13 21 17.47         17.1 VZEM019Q06
Observer details:
I52 Steward Observatory, Mt. Lemmon Station.  Observer G. J. Leonard.
    Measurers T. Beuden, V. F. Carvajal, D. Fay, J. B. Fazekas, D. C. Fuls, A.
    R. Gibbs, A. D. Grauer, H. Groeller, J. K. Hogan, R. A. Kowalski, S. M.
    Larson, G. J. Leonard, D. Rankin, R. L. Seaman, F. C. Shelly, K. W.
    Wierzchos.  1.0-m prime focus + CCD.
L34 Galhassin Robotic Telescope, Isnello.  Observer A. Nastasi.  0.40-m f/3.8
    400mm Reflector + CMO.
Q06 Tarui Observatory, Tarui.  Observer H. Watanabe.  0.35-m f/1.9 Schmidt-
    Cassegrain + CMO.
W68 ATLAS Chile, Rio Hurtado.  Observers L. Denneau, R. Siverd, J. Tonry, H.
    Weiland.  Measurers L. Denneau, N. Erasmus, A. Fitzsimmons, J. Robinson,
    R. Siverd, J. Tonry, H. Weiland.  0.5-m Reflector + CCD.
X09 Deep Random Survey, Rio Hurtado.  Observers A. Schnabel, D. Ruhela.
    Measurer S. Deen.  0.43-m reflector + CMOS.
Orbital elements:
2024 MC                                                  Earth MOID = 0.0131 AU
Epoch 2024 Mar. 31.0 TT = JDT 2460400.5                 MPC                     
M 105.12091              (2000.0)            P               Q                  
n   1.34810421     Peri.  161.42137     +0.31100495     -0.82597958             
a   0.8115596      Node   268.18710     +0.80146072     +0.49380265             
e   0.2969425      Incl.   28.05881     +0.51081958     -0.27187621             
P   0.73           H   23.90          G   0.15           U   6                  
Residuals in seconds of arc
240617 W68  0.1-  0.1-    240617 I52  0.2+  0.1+    240618 I52  0.2+  0.1-
240617 W68  0.0   0.3-    240618 L34  0.1+  0.4-    240618 I52  0.1-  0.2-
240617 W68  0.0   0.2+    240618 L34  0.1+  0.4+    240618 Q06  0.6-  0.0
240617 W68  0.9-  0.9+    240618 X09  1.4-  0.2+    240618 Q06  0.8-  0.0
240617 I52  0.0   0.1-    240618 X09  0.0   0.9+    240618 Q06  0.1-  0.1+
240617 I52  0.2+  0.0     240618 I52  0.1-  0.2+    240618 Q06  0.2-  0.3+
240617 I52  0.0   0.0     240618 I52  0.1+  0.0     240618 Q06  0.0   0.4+
Ephemeris:
2024 MC                  a,e,i = 0.81, 0.30, 28                  q = 0.5706
Date    TT    R. A. (2000) Decl.     Delta      r    Elong.  Phase     V
2024 05 19    23 51 29.3 -58 46 46   0.2547  1.0508    91.8    74.2    23.6
...
2024 06 03    23 40 50.5 -56 12 19   0.1391  1.0497   101.0    71.6    22.2
...
2024 06 11    23 12 34.8 -52 08 47   0.07475 1.0418   108.8    67.3    20.7
...
2024 06 17    21 53 02.5 -34 33 19   0.02863 1.0326   124.9    53.8    18.2
2024 06 18    21 23 20.5 -23 57 17   0.02242 1.0308   130.7    48.4    17.5
2024 06 19    20 43 56.7 -06 17 13   0.01796 1.0289   135.0    44.3    16.9
...
2024 06 25    15 25 28.9 +62 15 45   0.04600 1.0158    87.9    89.5    20.4
...
2024 07 03    13 35 22.0 +62 15 44   0.1095  0.9940    75.0    98.9    22.7
...
2024 07 18    12 47 36.5 +61 01 49   0.2264  0.9400    64.2   103.3    24.3
A. U. Tomatic                (C) Copyright 2024 MPC           M.P.E.C. 2024-M19
    
    
More information about the Iaude
mailing list